UAE810 OEMA-OMDB

Flight info

Callsign UAE810
Flight time 1h 47m
Altitude 37000
Route MEDRO J852 BDB Y214 RAPMA DCT KUVSO DCT KATIT DCT PEKEM M628 RIGIL G783 ELUDA/N0496F350 G783 ASPED Q308 KIPOK Q568 IMPED
Aircraft B77W/H-SDE1E2E3FGHIJ2J3J4J5M1RWXY/LB1D1

Departure

Time 2026-04-21 03:25
Airport Prince Mohammad Bin Abdulaziz Airport (OEMA)

Arrival

Time 2026-04-21 05:12
Airport Dubai International Airport (OMDB)
Time Latitude Longitude Altitude Speed Heading
2026-04-21 03:03 24.55608 39.71243 2110 ft 0 kts 79°
2026-04-21 03:14 24.55607 39.71240 2110 ft 1 kts 79°
2026-04-21 03:14 24.55604 39.71221 2110 ft 3 kts 79°
2026-04-21 03:14 24.55600 39.71200 2110 ft 3 kts 79°
2026-04-21 03:15 24.55597 39.71183 2113 ft 3 kts 83°
2026-04-21 03:15 24.55598 39.71164 2113 ft 3 kts 124°
2026-04-21 03:15 24.55605 39.71155 2114 ft 3 kts 154°
2026-04-21 03:15 24.55630 39.71146 2113 ft 2 kts 169°
2026-04-21 03:16 24.55637 39.71145 2113 ft 1 kts 169°
2026-04-21 03:16 24.55640 39.71144 2112 ft 0 kts 169°
2026-04-21 03:18 24.55617 39.71149 2113 ft 8 kts 169°
2026-04-21 03:18 24.55552 39.71163 2110 ft 9 kts 169°
2026-04-21 03:19 24.55491 39.71176 2110 ft 9 kts 169°
2026-04-21 03:19 24.55429 39.71189 2110 ft 9 kts 169°
2026-04-21 03:19 24.55368 39.71202 2110 ft 9 kts 169°
2026-04-21 03:19 24.55302 39.71216 2110 ft 11 kts 171°
2026-04-21 03:20 24.55243 39.71170 2110 ft 13 kts 252°
2026-04-21 03:20 24.55219 39.71068 2111 ft 13 kts 237°
2026-04-21 03:20 24.55124 39.71061 2112 ft 17 kts 169°
2026-04-21 03:20 24.54993 39.71087 2111 ft 21 kts 169°
2026-04-21 03:21 24.54847 39.71116 2112 ft 21 kts 169°
2026-04-21 03:21 24.54700 39.71147 2112 ft 21 kts 169°
2026-04-21 03:21 24.54553 39.71179 2112 ft 21 kts 169°
2026-04-21 03:21 24.54409 39.71210 2111 ft 21 kts 169°
2026-04-21 03:22 24.54356 39.71222 2111 ft 21 kts 169°
2026-04-21 03:22 24.54325 39.71228 2111 ft 21 kts 169°
2026-04-21 03:22 24.54180 39.71260 2112 ft 21 kts 169°
2026-04-21 03:22 24.54033 39.71292 2112 ft 21 kts 169°
2026-04-21 03:23 24.53893 39.71321 2112 ft 16 kts 171°
2026-04-21 03:23 24.53833 39.71281 2113 ft 10 kts 250°
2026-04-21 03:23 24.53817 39.71208 2116 ft 10 kts 256°
2026-04-21 03:23 24.53813 39.71152 2116 ft 4 kts 304°
2026-04-21 03:24 24.53845 39.71141 2116 ft 5 kts 348°
2026-04-21 03:24 24.53847 39.71141 2116 ft 0 kts 348°
2026-04-21 03:24 24.53894 39.71130 2116 ft 31 kts 348°
2026-04-21 03:24 24.54387 39.71025 2117 ft 111 kts 349°
2026-04-21 03:25 24.55381 39.70814 2117 ft 175 kts 349°
2026-04-21 03:25 24.56650 39.70552 2562 ft 190 kts 348°
2026-04-21 03:25 24.57996 39.70273 3260 ft 197 kts 348°
2026-04-21 03:25 24.59341 39.69977 3901 ft 208 kts 347°
2026-04-21 03:26 24.60878 39.69641 4135 ft 240 kts 347°
2026-04-21 03:26 24.62589 39.69274 4573 ft 261 kts 347°
2026-04-21 03:26 24.64421 39.68885 5319 ft 271 kts 347°
2026-04-21 03:26 24.66288 39.68489 6127 ft 279 kts 347°
2026-04-21 03:27 24.68235 39.68077 6922 ft 285 kts 346°
2026-04-21 03:27 24.70213 39.67904 7620 ft 296 kts
2026-04-21 03:27 24.72137 39.68851 8464 ft 314 kts 38°
2026-04-21 03:27 24.73490 39.70742 9296 ft 326 kts 65°
2026-04-21 03:28 24.74108 39.73170 10126 ft 332 kts 89°
2026-04-21 03:28 24.73991 39.75753 10726 ft 346 kts 105°
2026-04-21 03:28 24.73334 39.78380 10929 ft 373 kts 114°
2026-04-21 03:28 24.72380 39.81174 11184 ft 401 kts 117°
2026-04-21 03:29 24.71344 39.84035 11907 ft 412 kts 117°
2026-04-21 03:29 24.70283 39.87004 12742 ft 421 kts 116°
2026-04-21 03:29 24.69229 39.90044 13703 ft 426 kts 116°
2026-04-21 03:29 24.68188 39.93129 14527 ft 432 kts 115°
2026-04-21 03:30 24.67162 39.96233 15312 ft 439 kts 114°
2026-04-21 03:30 24.66121 39.99409 16071 ft 446 kts 114°
2026-04-21 03:30 24.65058 40.02667 16846 ft 453 kts 114°
2026-04-21 03:30 24.64003 40.05914 17595 ft 460 kts 113°
2026-04-21 03:31 24.62918 40.09253 18359 ft 466 kts 112°
2026-04-21 03:31 24.61813 40.12645 19015 ft 472 kts 112°
2026-04-21 03:31 24.60706 40.16042 19657 ft 478 kts 112°
2026-04-21 03:31 24.59565 40.19532 20308 ft 484 kts 112°
2026-04-21 03:32 24.58430 40.23002 20954 ft 491 kts 112°
2026-04-21 03:32 24.57262 40.26569 21569 ft 497 kts 112°
2026-04-21 03:32 24.56095 40.30128 22192 ft 503 kts 112°
2026-04-21 03:32 24.54894 40.33786 22810 ft 509 kts 112°
2026-04-21 03:33 24.53695 40.37438 23391 ft 515 kts 111°
2026-04-21 03:33 24.52469 40.41169 23885 ft 520 kts 112°
2026-04-21 03:33 24.51234 40.44921 24399 ft 525 kts 112°
2026-04-21 03:33 24.49957 40.48695 24895 ft 528 kts 114°
2026-04-21 03:34 24.48643 40.52450 25427 ft 532 kts 113°
2026-04-21 03:34 24.47373 40.56304 25936 ft 537 kts 112°
2026-04-21 03:34 24.46259 40.60199 26390 ft 543 kts 107°
2026-04-21 03:34 24.45428 40.64276 26836 ft 550 kts 101°
2026-04-21 03:35 24.44955 40.68474 27290 ft 555 kts 96°
2026-04-21 03:35 24.44582 40.72712 27758 ft 559 kts 96°
2026-04-21 03:35 24.44201 40.76991 28180 ft 564 kts 97°
2026-04-21 03:35 24.43797 40.81302 28564 ft 569 kts 97°
2026-04-21 03:36 24.43373 40.85595 28944 ft 573 kts 98°
2026-04-21 03:36 24.42928 40.89974 29346 ft 576 kts 98°
2026-04-21 03:36 24.42481 40.94317 29714 ft 580 kts 98°
2026-04-21 03:36 24.42024 40.98752 30084 ft 582 kts 98°
2026-04-21 03:37 24.41574 41.03146 30472 ft 583 kts 98°
2026-04-21 03:37 24.41119 41.07583 30905 ft 583 kts 98°
2026-04-21 03:37 24.40664 41.11966 31323 ft 583 kts 98°
2026-04-21 03:37 24.40197 41.16411 31735 ft 583 kts 98°
2026-04-21 03:38 24.39732 41.20797 32156 ft 583 kts 98°
2026-04-21 03:38 24.39262 41.25221 32572 ft 583 kts 98°
2026-04-21 03:38 24.38790 41.29658 32972 ft 583 kts 97°
2026-04-21 03:38 24.38322 41.34053 33384 ft 584 kts 97°
2026-04-21 03:39 24.37849 41.38496 33831 ft 583 kts 97°
2026-04-21 03:39 24.37378 41.42906 34247 ft 582 kts 97°
2026-04-21 03:39 24.36911 41.47265 34637 ft 581 kts 97°
2026-04-21 03:39 24.36438 41.51672 35037 ft 580 kts 97°
2026-04-21 03:40 24.35964 41.56069 35428 ft 579 kts 98°
2026-04-21 03:40 24.35488 41.60469 35784 ft 579 kts 97°
2026-04-21 03:40 24.35016 41.64828 36112 ft 580 kts 97°
2026-04-21 03:40 24.34537 41.69234 36455 ft 580 kts 98°
2026-04-21 03:41 24.34066 41.73571 36810 ft 579 kts 98°
2026-04-21 03:41 24.33585 41.77971 36965 ft 583 kts 98°
2026-04-21 03:41 24.32102 41.86783 36928 ft 591 kts 108°
2026-04-21 03:42 24.29757 41.95498 36937 ft 599 kts 110°
2026-04-21 03:42 24.27353 42.04258 36931 ft 602 kts 109°
2026-04-21 03:43 24.24996 42.13081 36931 ft 603 kts 109°
2026-04-21 03:43 24.22684 42.21850 36924 ft 602 kts 109°
2026-04-21 03:44 24.20348 42.30686 36930 ft 601 kts 109°
2026-04-21 03:44 24.18025 42.39420 36936 ft 600 kts 109°
2026-04-21 03:45 24.15674 42.48227 36929 ft 599 kts 109°
2026-04-21 03:45 24.13339 42.56953 36937 ft 598 kts 109°
2026-04-21 03:46 24.10998 42.65682 36923 ft 597 kts 108°
2026-04-21 03:46 24.08659 42.74383 36936 ft 596 kts 108°
2026-04-21 03:47 24.06322 42.83059 36936 ft 595 kts 109°
2026-04-21 03:47 24.03975 42.91752 36937 ft 595 kts 109°
2026-04-21 03:48 24.01634 43.00408 36935 ft 595 kts 109°
2026-04-21 03:48 23.99285 43.09078 36933 ft 594 kts 108°
2026-04-21 03:49 23.96943 43.17708 36939 ft 594 kts 108°
2026-04-21 03:49 23.94575 43.26408 36932 ft 594 kts 108°
2026-04-21 03:50 23.92226 43.35020 36943 ft 593 kts 108°
2026-04-21 03:50 23.89853 43.43694 36934 ft 594 kts 108°
2026-04-21 03:51 23.87485 43.52332 36934 ft 593 kts 108°
2026-04-21 03:51 23.85129 43.60906 36924 ft 594 kts 108°
2026-04-21 03:52 23.82743 43.69572 36925 ft 593 kts 108°
2026-04-21 03:52 23.80370 43.78169 36923 ft 593 kts 108°
2026-04-21 03:53 23.78055 43.86829 36925 ft 594 kts 104°
2026-04-21 03:53 23.76731 43.95720 36917 ft 594 kts 94°
2026-04-21 03:54 23.76152 44.04691 36922 ft 594 kts 93°
2026-04-21 03:54 23.75556 44.13690 36910 ft 594 kts 94°
2026-04-21 03:55 23.74891 44.22684 36915 ft 595 kts 94°
2026-04-21 03:55 23.74197 44.31661 36925 ft 595 kts 94°
2026-04-21 03:56 23.73501 44.40677 36926 ft 595 kts 94°
2026-04-21 03:56 23.72809 44.49633 36929 ft 595 kts 94°
2026-04-21 03:57 23.72109 44.58655 36935 ft 594 kts 94°
2026-04-21 03:57 23.71405 44.67646 36917 ft 594 kts 94°
2026-04-21 03:58 23.70700 44.76579 36925 ft 594 kts 94°
2026-04-21 03:58 23.69987 44.85566 36923 ft 594 kts 94°
2026-04-21 03:59 23.69266 44.94541 36931 ft 593 kts 94°
2026-04-21 04:00 23.68175 45.07969 36925 ft 593 kts 94°
2026-04-21 04:00 23.67441 45.16956 36921 ft 593 kts 94°
2026-04-21 04:01 23.66707 45.25878 36930 ft 593 kts 94°
2026-04-21 04:01 23.65966 45.34846 36912 ft 593 kts 94°
2026-04-21 04:02 23.65220 45.43821 36910 ft 592 kts 94°
2026-04-21 04:02 23.64471 45.52772 36901 ft 592 kts 94°
2026-04-21 04:03 23.63722 45.61666 36901 ft 590 kts 94°
2026-04-21 04:03 23.62967 45.70565 36890 ft 589 kts 94°
2026-04-21 04:04 23.62209 45.79457 36888 ft 587 kts 94°
2026-04-21 04:04 23.61447 45.88332 36891 ft 587 kts 94°
2026-04-21 04:05 23.60687 45.97141 36905 ft 586 kts 94°
2026-04-21 04:05 23.59916 46.06010 36888 ft 587 kts 95°
2026-04-21 04:06 23.59144 46.14833 36895 ft 587 kts 95°
2026-04-21 04:06 23.58494 46.22222 36896 ft 588 kts 95°
2026-04-21 04:07 23.57706 46.31106 36907 ft 588 kts 95°
2026-04-21 04:07 23.56913 46.39999 36918 ft 589 kts 95°
2026-04-21 04:08 23.56114 46.48915 36926 ft 590 kts 95°
2026-04-21 04:08 23.55312 46.57780 36935 ft 591 kts 95°
2026-04-21 04:09 23.54487 46.66713 36913 ft 590 kts 95°
2026-04-21 04:09 23.53659 46.75616 36923 ft 590 kts 95°
2026-04-21 04:10 23.52833 46.84458 36921 ft 589 kts 95°
2026-04-21 04:10 23.52000 46.93352 36918 ft 589 kts 95°
2026-04-21 04:11 23.51161 47.02251 36919 ft 589 kts 95°
2026-04-21 04:11 23.50321 47.11088 36909 ft 588 kts 95°
2026-04-21 04:12 23.49473 47.19959 36916 ft 587 kts 95°
2026-04-21 04:12 23.48622 47.28817 36906 ft 586 kts 95°
2026-04-21 04:13 23.47775 47.37584 36906 ft 586 kts 95°
2026-04-21 04:13 23.46915 47.46429 36904 ft 585 kts 95°
2026-04-21 04:14 23.46058 47.55198 36905 ft 584 kts 95°
2026-04-21 04:14 23.45200 47.64006 36914 ft 584 kts 95°
2026-04-21 04:15 23.44339 47.72815 36896 ft 584 kts 95°
2026-04-21 04:15 23.43476 47.81584 36908 ft 584 kts 95°
2026-04-21 04:16 23.42605 47.90381 36899 ft 584 kts 95°
2026-04-21 04:16 23.41729 47.99174 36901 ft 584 kts 95°
2026-04-21 04:17 23.40848 48.07961 36904 ft 583 kts 95°
2026-04-21 04:17 23.39961 48.16760 36895 ft 583 kts 95°
2026-04-21 04:18 23.39078 48.25482 36885 ft 583 kts 95°
2026-04-21 04:18 23.38199 48.34266 36891 ft 582 kts 94°
2026-04-21 04:19 23.37758 48.43023 36900 ft 581 kts 90°
2026-04-21 04:19 23.37467 48.51835 36893 ft 581 kts 90°
2026-04-21 04:20 23.37146 48.60632 36884 ft 581 kts 90°
2026-04-21 04:20 23.36787 48.69369 36888 ft 581 kts 91°
2026-04-21 04:21 23.36413 48.78182 36882 ft 581 kts 91°
2026-04-21 04:21 23.36040 48.86980 36877 ft 581 kts 91°
2026-04-21 04:22 23.35666 48.95751 36871 ft 580 kts 90°
2026-04-21 04:22 23.35288 49.04465 36877 ft 579 kts 91°
2026-04-21 04:23 23.34370 49.13201 36881 ft 581 kts 98°
2026-04-21 04:23 23.33060 49.21897 36877 ft 581 kts 98°
2026-04-21 04:24 23.31752 49.30525 36883 ft 581 kts 98°
2026-04-21 04:24 23.30476 49.39228 36875 ft 582 kts 98°
2026-04-21 04:25 23.29217 49.47933 36856 ft 582 kts 97°
2026-04-21 04:25 23.27954 49.56639 36882 ft 582 kts 97°
2026-04-21 04:26 23.26691 49.65285 36876 ft 582 kts 97°
2026-04-21 04:26 23.25411 49.73994 36879 ft 581 kts 97°
2026-04-21 04:27 23.24127 49.82688 36881 ft 581 kts 97°
2026-04-21 04:27 23.22844 49.91348 36876 ft 581 kts 97°
2026-04-21 04:28 23.21553 50.00028 36867 ft 582 kts 97°
2026-04-21 04:28 23.20260 50.08693 36874 ft 581 kts 97°
2026-04-21 04:29 23.18962 50.17354 36876 ft 582 kts 97°
2026-04-21 04:29 23.17656 50.26034 36881 ft 582 kts 97°
2026-04-21 04:30 23.16349 50.34692 36876 ft 583 kts 97°
2026-04-21 04:30 23.15031 50.43388 36877 ft 583 kts 97°
2026-04-21 04:31 23.13706 50.52094 36872 ft 584 kts 97°
2026-04-21 04:31 23.12375 50.60807 36859 ft 584 kts 97°
2026-04-21 04:32 23.11049 50.69455 36867 ft 583 kts 97°
2026-04-21 04:32 23.09707 50.78175 36865 ft 583 kts 97°
2026-04-21 04:33 23.08364 50.86869 36866 ft 583 kts 97°
2026-04-21 04:33 23.07026 50.95499 36867 ft 583 kts 97°
2026-04-21 04:34 23.05675 51.04185 36862 ft 583 kts 97°
2026-04-21 04:34 23.04319 51.12860 36838 ft 583 kts 97°
2026-04-21 04:35 23.02958 51.21543 36856 ft 582 kts 97°
2026-04-21 04:35 23.01597 51.30190 36872 ft 582 kts 97°
2026-04-21 04:36 23.00232 51.38830 36858 ft 581 kts 97°
2026-04-21 04:36 22.98866 51.47454 36860 ft 581 kts 97°
2026-04-21 04:37 22.97488 51.56116 36858 ft 581 kts 98°
2026-04-21 04:37 22.96109 51.64754 36859 ft 581 kts 97°
2026-04-21 04:38 22.94721 51.73416 36860 ft 581 kts 98°
2026-04-21 04:38 22.93330 51.82063 36860 ft 581 kts 98°
2026-04-21 04:39 22.91945 51.90644 36856 ft 581 kts 98°
2026-04-21 04:39 22.90552 51.99249 36857 ft 580 kts 98°
2026-04-21 04:40 22.89152 52.07864 36859 ft 580 kts 98°
2026-04-21 04:40 22.87751 52.16450 36852 ft 579 kts 98°
2026-04-21 04:41 22.86341 52.25069 36829 ft 578 kts 98°
2026-04-21 04:41 22.84932 52.33648 36863 ft 577 kts 97°
2026-04-21 04:42 22.83530 52.42160 36854 ft 576 kts 97°
2026-04-21 04:42 22.82300 52.50733 36848 ft 573 kts 91°
2026-04-21 04:43 22.82025 52.59289 36856 ft 569 kts 87°
2026-04-21 04:43 22.81892 52.67858 36856 ft 569 kts 87°
2026-04-21 04:44 22.81711 52.76438 36848 ft 569 kts 88°
2026-04-21 04:44 22.81486 52.84990 36859 ft 569 kts 88°
2026-04-21 04:45 22.81246 52.93553 36845 ft 569 kts 88°
2026-04-21 04:45 22.81005 53.02152 36835 ft 568 kts 88°
2026-04-21 04:46 22.80765 53.10665 36848 ft 567 kts 88°
2026-04-21 04:46 22.80521 53.19219 36856 ft 567 kts 88°
2026-04-21 04:47 22.80273 53.27755 36855 ft 567 kts 88°
2026-04-21 04:47 22.80020 53.36288 36860 ft 566 kts 88°
2026-04-21 04:48 22.79763 53.44763 36845 ft 566 kts 88°
2026-04-21 04:48 22.79501 53.53284 36856 ft 566 kts 88°
2026-04-21 04:49 22.79234 53.61805 36850 ft 565 kts 88°
2026-04-21 04:49 22.78963 53.70321 36852 ft 565 kts 88°
2026-04-21 04:50 22.78688 53.78850 36862 ft 565 kts 88°
2026-04-21 04:50 22.78407 53.87361 36864 ft 565 kts 88°
2026-04-21 04:51 22.78647 53.95719 36854 ft 549 kts 70°
2026-04-21 04:51 22.79937 53.99519 36872 ft 534 kts 55°
2026-04-21 04:51 22.81883 54.02907 36870 ft 521 kts 44°
2026-04-21 04:51 22.84361 54.05692 36870 ft 501 kts 30°
2026-04-21 04:52 22.87060 54.08042 36887 ft 502 kts 30°
2026-04-21 04:52 22.92468 54.12883 36865 ft 506 kts 32°
2026-04-21 04:53 22.97838 54.17836 36876 ft 508 kts 32°
2026-04-21 04:53 23.03219 54.22844 36874 ft 510 kts 32°
2026-04-21 04:54 23.08595 54.27848 36876 ft 510 kts 32°
2026-04-21 04:54 23.13967 54.32850 36872 ft 509 kts 32°
2026-04-21 04:55 23.19331 54.37846 36874 ft 508 kts 32°
2026-04-21 04:55 23.24690 54.42841 36870 ft 507 kts 32°
2026-04-21 04:56 23.30042 54.47834 36873 ft 507 kts 32°
2026-04-21 04:56 23.35377 54.52817 36879 ft 506 kts 33°
2026-04-21 04:57 23.40717 54.57809 36868 ft 506 kts 33°
2026-04-21 04:57 23.46037 54.62790 36875 ft 506 kts 33°
2026-04-21 04:58 23.51380 54.67798 36868 ft 506 kts 33°
2026-04-21 04:58 23.56725 54.72813 36878 ft 507 kts 33°
2026-04-21 04:59 23.62071 54.77834 36877 ft 507 kts 33°
2026-04-21 04:59 23.67410 54.82855 36871 ft 508 kts 33°
2026-04-21 05:00 23.71847 54.87032 36869 ft 508 kts 33°
2026-04-21 05:00 24.00708 55.14284 36389 ft 503 kts 33°
2026-04-21 05:01 24.09234 55.22285 34409 ft 494 kts 36°
2026-04-21 05:01 24.17408 55.30099 31201 ft 508 kts 39°
2026-04-21 05:01 24.31535 55.43597 26520 ft 499 kts 39°
2026-04-21 05:01 24.51843 55.63027 21106 ft 464 kts 39°
2026-04-21 05:02 24.60807 55.71613 18949 ft 444 kts 38°
2026-04-21 05:02 24.63261 55.73444 18721 ft 419 kts 20°
2026-04-21 05:02 24.66030 55.74221 18333 ft 405 kts
2026-04-21 05:02 24.68822 55.74192 17449 ft 403 kts 350°
2026-04-21 05:03 24.71559 55.73618 16229 ft 396 kts 345°
2026-04-21 05:03 24.74229 55.72919 14878 ft 396 kts 344°
2026-04-21 05:03 24.76917 55.72189 13579 ft 396 kts 345°
2026-04-21 05:03 24.79559 55.71475 12195 ft 391 kts 345°
2026-04-21 05:04 24.82203 55.70773 10870 ft 384 kts 345°
2026-04-21 05:04 24.84746 55.70109 9683 ft 375 kts 345°
2026-04-21 05:04 24.87245 55.69462 8461 ft 365 kts 346°
2026-04-21 05:04 24.89709 55.68826 7297 ft 359 kts 347°
2026-04-21 05:05 24.92086 55.68214 6653 ft 343 kts 347°
2026-04-21 05:05 24.94396 55.67621 6471 ft 344 kts 347°
2026-04-21 05:05 24.96808 55.67002 6514 ft 372 kts 347°
2026-04-21 05:05 24.99312 55.66359 6083 ft 355 kts 347°
2026-04-21 05:06 25.01610 55.65768 5755 ft 323 kts 347°
2026-04-21 05:06 25.03659 55.65240 5721 ft 286 kts 347°
2026-04-21 05:06 25.05524 55.64760 5717 ft 268 kts 348°
2026-04-21 05:06 25.07347 55.64291 5401 ft 267 kts 347°
2026-04-21 05:07 25.09123 55.63807 5088 ft 262 kts 341°
2026-04-21 05:07 25.10608 55.62734 4817 ft 257 kts 313°
2026-04-21 05:07 25.11650 55.61130 4473 ft 257 kts 303°
2026-04-21 05:07 25.12569 55.59447 4120 ft 248 kts 302°
2026-04-21 05:08 25.13428 55.57865 3804 ft 236 kts 302°
2026-04-21 05:08 25.14253 55.56365 3505 ft 223 kts 303°
2026-04-21 05:08 25.15040 55.54941 3227 ft 208 kts 303°
2026-04-21 05:08 25.15782 55.53606 2985 ft 202 kts 304°
2026-04-21 05:09 25.16504 55.52304 2748 ft 197 kts 304°
2026-04-21 05:09 25.17217 55.51012 2465 ft 193 kts 304°
2026-04-21 05:09 25.17891 55.49795 2212 ft 180 kts 304°
2026-04-21 05:09 25.18518 55.48664 1985 ft 169 kts 304°
2026-04-21 05:10 25.19116 55.47583 1769 ft 157 kts 304°
2026-04-21 05:10 25.19684 55.46559 1581 ft 159 kts 304°
2026-04-21 05:10 25.20261 55.45520 1364 ft 156 kts 304°
2026-04-21 05:10 25.20816 55.44512 1120 ft 154 kts 303°
2026-04-21 05:11 25.21346 55.43504 878 ft 151 kts 301°
2026-04-21 05:11 25.21892 55.42513 671 ft 150 kts 303°
2026-04-21 05:11 25.22450 55.41535 528 ft 153 kts 302°
2026-04-21 05:11 25.22997 55.40530 307 ft 151 kts 302°
2026-04-21 05:12 25.23552 55.39547 92 ft 149 kts 302°
2026-04-21 05:12 25.24075 55.38609 30 ft 134 kts 302°
2026-04-21 05:12 25.24471 55.37900 29 ft 82 kts 301°
2026-04-21 05:12 25.24672 55.37535 27 ft 31 kts 301°
2026-04-21 05:13 25.24772 55.37317 28 ft 30 kts 285°
2026-04-21 05:13 25.24786 55.37096 28 ft 21 kts 271°
2026-04-21 05:13 25.24804 55.36935 27 ft 21 kts 282°
2026-04-21 05:13 25.24752 55.36844 26 ft 15 kts 211°
2026-04-21 05:14 25.24666 55.36786 29 ft 15 kts 212°
2026-04-21 05:14 25.24580 55.36728 30 ft 15 kts 211°
2026-04-21 05:14 25.24495 55.36667 29 ft 15 kts 219°
2026-04-21 05:14 25.24460 55.36616 28 ft 8 kts 244°
2026-04-21 05:15 25.24445 55.36550 26 ft 10 kts 266°
2026-04-21 05:15 25.24474 55.36460 29 ft 14 kts 300°
2026-04-21 05:15 25.24523 55.36371 27 ft 14 kts 299°
2026-04-21 05:15 25.24542 55.36268 26 ft 14 kts 273°
2026-04-21 05:16 25.24559 55.36163 29 ft 14 kts 294°
2026-04-21 05:16 25.24609 55.36068 30 ft 14 kts 302°
2026-04-21 05:16 25.24661 55.35976 30 ft 14 kts 302°
2026-04-21 05:16 25.24713 55.35883 29 ft 14 kts 302°
2026-04-21 05:17 25.24768 55.35807 29 ft 5 kts 322°
2026-04-21 05:17 25.24788 55.35790 30 ft 0 kts 322°
2026-04-21 05:17 25.24813 55.35775 30 ft 9 kts 343°
2026-04-21 05:17 25.24868 55.35795 30 ft 7 kts 30°
2026-04-21 05:18 25.24909 55.35822 29 ft 7 kts 31°
2026-04-21 05:18 25.24926 55.35833 29 ft 0 kts 31°
2026-04-21 05:18 25.24927 55.35834 29 ft 0 kts 31°